Weather History for KOTH - July, 2012

Change the Weather History Date:

Sunday, July 29, 2012

  Actual Average Record
Temperature  
Mean Temperature 61 °F 59 °F  
Max Temperature 64 °F 65 °F 75 °F (1926)
Min Temperature 57 °F 53 °F 42 °F (1926)
Degree Days  
Heating Degree Days 4 6  
Month to date heating degree days 144 185  
Since 1 June heating degree days 396 452  
Since 1 July heating degree days 144 185  
Cooling Degree Days 0 0  
Month to date cooling degree days 0 0  
Year to date cooling degree days 0 0  
Since 1 June cooling degree days 0 0  
Growing Degree Days 10 (Base 50)    
Moisture  
Dew Point 56 °F    
Average Humidity 86    
Maximum Humidity 93    
Minimum Humidity 67    
Precipitation  
Precipitation 0.00 in 0.01 in 0.60 in (2001)
Month to date precipitation 0.44 0.48  
Year to date precipitation 28.80 36.60  
Sea Level Pressure  
Sea Level Pressure 30.18 in    
Wind  
Wind Speed 9 mph (NNW)    
Max Wind Speed 18 mph    
Max Gust Speed 22 mph    
Visibility 10 miles    
Events      
T = Trace of Precipitation, MM = Missing Value Source: NWS Daily Summary

Daily Weather History Graph

Daily Weather History Graph

Search for Another Location

Airport or City:

Trip Planner

Search our weather history database for the weather conditions in past years. The results will help you decide how hot, cold, wet, or windy it might be!

Date:

Astronomy

Jul. 29, 2012 Rise Set
Actual Time 6:04 AM PDT 8:42 PM PDT
Civil Twilight 5:31 AM PDT 9:14 PM PDT
Nautical Twilight 4:50 AM PDT 9:55 PM PDT
Astronomical Twilight 4:03 AM PDT 10:42 PM PDT
Moon 5:55 PM PDT (7/29) 2:21 AM PDT (7/29)
Length of Visible Light 15h 43m
Length of Day
14h 37m
Waxing Gibbous, 86% of the Moon is Illuminated
Jul 29
Waxing Gibbous
Aug 1
Full
Aug 9
Last Quarter
Aug 17
New
Aug 24
First Quarter

Hourly Weather History & Observations

Time (PDT) Temp. Dew Point Humidity Pressure Visibility Wind Dir Wind Speed Gust Speed Precip Events Conditions
12:15 AM 59.0 °F 57.2 °F 94% 30.19 in 10.0 mi NW 3.5 mph - N/A   Overcast
12:35 AM 59.0 °F 57.2 °F 94% 30.19 in 10.0 mi NW 3.5 mph - N/A   Overcast
12:55 AM 59.0 °F 57.2 °F 94% 30.19 in 10.0 mi NNW 3.5 mph - N/A   Overcast
1:15 AM 59.0 °F 57.2 °F 94% 30.18 in 10.0 mi NNW 3.5 mph - N/A   Overcast
1:35 AM 59.0 °F 57.2 °F 94% 30.18 in 10.0 mi North 5.8 mph - N/A   Overcast
1:55 AM 59.0 °F 57.2 °F 94% 30.18 in 10.0 mi NNW 4.6 mph - N/A   Overcast
2:15 AM 59.0 °F 57.2 °F 94% 30.18 in 10.0 mi NW 3.5 mph - N/A   Overcast
2:35 AM 59.0 °F 57.2 °F 94% 30.17 in 10.0 mi NNW 4.6 mph - N/A   Overcast
2:55 AM 59.0 °F 57.2 °F 94% 30.18 in 10.0 mi North 3.5 mph - N/A   Overcast
3:15 AM 59.0 °F 57.2 °F 94% 30.17 in 10.0 mi North 3.5 mph - N/A   Overcast
3:35 AM 59.0 °F 55.4 °F 88% 30.18 in 10.0 mi Calm Calm - N/A   Overcast
3:55 AM 59.0 °F 55.4 °F 88% 30.18 in 10.0 mi Calm Calm - N/A   Overcast
4:15 AM 59.0 °F 55.4 °F 88% 30.18 in 10.0 mi NNW 4.6 mph - N/A   Overcast
4:35 AM 59.0 °F 55.4 °F 88% 30.18 in 10.0 mi NNW 5.8 mph - N/A   Overcast
4:55 AM 59.0 °F 55.4 °F 88% 30.18 in 10.0 mi NNW 4.6 mph - N/A   Overcast
5:15 AM 57.2 °F 55.4 °F 94% 30.18 in 10.0 mi NW 5.8 mph - N/A   Overcast
5:35 AM 57.2 °F 55.4 °F 94% 30.18 in 10.0 mi North 5.8 mph - N/A   Overcast
5:55 AM 57.2 °F 55.4 °F 94% 30.19 in 10.0 mi NNW 5.8 mph - N/A   Overcast
6:15 AM 57.2 °F 55.4 °F 94% 30.19 in 10.0 mi NNW 6.9 mph - N/A   Overcast
6:35 AM 57.2 °F 55.4 °F 94% 30.19 in 10.0 mi NNW 5.8 mph - N/A   Overcast
6:55 AM 57.2 °F 55.4 °F 94% 30.19 in 10.0 mi NNW 4.6 mph - N/A   Overcast
7:15 AM 57.2 °F 55.4 °F 94% 30.19 in 10.0 mi NNW 4.6 mph - N/A   Overcast
7:35 AM 59.0 °F 55.4 °F 88% 30.20 in 10.0 mi North 3.5 mph - N/A   Overcast
7:55 AM 59.0 °F 55.4 °F 88% 30.20 in 10.0 mi North 4.6 mph - N/A   Overcast
8:15 AM 59.0 °F 55.4 °F 88% 30.20 in 10.0 mi North 9.2 mph - N/A   Overcast
8:35 AM 59.0 °F 55.4 °F 88% 30.20 in 10.0 mi North 10.4 mph - N/A   Overcast
8:55 AM 59.0 °F 55.4 °F 88% 30.20 in 10.0 mi North 8.1 mph - N/A   Overcast
9:15 AM 60.8 °F 57.2 °F 88% 30.20 in 10.0 mi North 6.9 mph - N/A   Overcast
9:35 AM 60.8 °F 57.2 °F 88% 30.19 in 10.0 mi North 5.8 mph - N/A   Overcast
9:55 AM 60.8 °F 57.2 °F 88% 30.19 in 10.0 mi North 9.2 mph - N/A   Overcast
10:15 AM 60.8 °F 55.4 °F 82% 30.19 in 10.0 mi North 10.4 mph - N/A   Overcast
10:35 AM 60.8 °F 55.4 °F 82% 30.19 in 10.0 mi North 12.7 mph - N/A   Overcast
10:55 AM 62.6 °F 55.4 °F 77% 30.18 in 10.0 mi North 11.5 mph - N/A   Overcast
11:15 AM 62.6 °F 55.4 °F 77% 30.18 in 10.0 mi NNW 12.7 mph - N/A   Overcast
11:35 AM 60.8 °F 55.4 °F 82% 30.18 in 10.0 mi NNW 11.5 mph - N/A   Overcast
11:55 AM 60.8 °F 55.4 °F 82% 30.19 in 10.0 mi NNW 11.5 mph - N/A   Overcast
12:15 PM 60.8 °F 55.4 °F 82% 30.19 in 10.0 mi North 15.0 mph - N/A   Overcast
12:35 PM 60.8 °F 55.4 °F 82% 30.18 in 10.0 mi North 15.0 mph - N/A   Overcast
12:55 PM 60.8 °F 55.4 °F 82% 30.18 in 10.0 mi North 15.0 mph 21.9 mph N/A   Overcast
1:15 PM 62.6 °F 55.4 °F 77% 30.18 in 10.0 mi NNW 16.1 mph - N/A   Overcast
1:35 PM 62.6 °F 55.4 °F 77% 30.19 in 10.0 mi North 16.1 mph 20.7 mph N/A   Overcast
1:55 PM 62.6 °F 55.4 °F 77% 30.19 in 10.0 mi North 17.3 mph 21.9 mph N/A   Overcast
2:15 PM 62.6 °F 55.4 °F 77% 30.19 in 10.0 mi North 16.1 mph 21.9 mph N/A   Overcast
2:35 PM 62.6 °F 55.4 °F 77% 30.19 in 10.0 mi North 13.8 mph 20.7 mph N/A   Overcast
2:55 PM 62.6 °F 55.4 °F 77% 30.18 in 10.0 mi North 17.3 mph - N/A   Overcast
3:15 PM 64.4 °F 55.4 °F 73% 30.18 in 10.0 mi North 15.0 mph - N/A   Overcast
3:35 PM 64.4 °F 55.4 °F 73% 30.18 in 10.0 mi North 12.7 mph - N/A   Overcast
3:55 PM 64.4 °F 53.6 °F 68% 30.17 in 10.0 mi North 18.4 mph - N/A   Overcast
4:15 PM 62.6 °F 53.6 °F 72% 30.17 in 10.0 mi North 16.1 mph 20.7 mph N/A   Overcast
4:35 PM 62.6 °F 55.4 °F 77% 30.17 in 10.0 mi North 13.8 mph 19.6 mph N/A   Overcast
4:55 PM 62.6 °F 55.4 °F 77% 30.17 in 10.0 mi NNW 15.0 mph - N/A   Overcast
5:15 PM 62.6 °F 55.4 °F 77% 30.16 in 10.0 mi North 15.0 mph - N/A   Overcast
5:35 PM 64.4 °F 55.4 °F 73% 30.17 in 10.0 mi North 15.0 mph 20.7 mph N/A   Partly Cloudy
5:55 PM 64.4 °F 55.4 °F 73% 30.17 in 10.0 mi North 13.8 mph 19.6 mph N/A   Clear
6:15 PM 62.6 °F 55.4 °F 77% 30.17 in 10.0 mi NNW 13.8 mph 19.6 mph N/A   Clear
6:35 PM 62.6 °F 55.4 °F 77% 30.17 in 10.0 mi NNW 15.0 mph 18.4 mph N/A   Clear
6:55 PM 62.6 °F 55.4 °F 77% 30.17 in 10.0 mi North 11.5 mph - N/A   Clear
7:15 PM 62.6 °F 55.4 °F 77% 30.17 in 10.0 mi North 11.5 mph - N/A   Clear
7:35 PM 60.8 °F 55.4 °F 82% 30.17 in 10.0 mi North 11.5 mph - N/A   Clear
7:55 PM 60.8 °F 55.4 °F 82% 30.18 in 10.0 mi North 11.5 mph - N/A   Clear
8:15 PM 59.0 °F 55.4 °F 88% 30.18 in 10.0 mi North 10.4 mph - N/A   Clear
8:35 PM 57.2 °F 55.4 °F 94% 30.18 in 10.0 mi North 9.2 mph - N/A   Partly Cloudy
8:55 PM 57.2 °F 55.4 °F 94% 30.18 in 10.0 mi NNW 8.1 mph - N/A   Mostly Cloudy
9:15 PM 57.2 °F 55.4 °F 94% 30.18 in 10.0 mi North 9.2 mph - N/A   Mostly Cloudy
9:35 PM 57.2 °F 55.4 °F 94% 30.19 in 10.0 mi North 10.4 mph - N/A   Partly Cloudy
9:55 PM 57.2 °F 55.4 °F 94% 30.19 in 10.0 mi North 6.9 mph - N/A   Mostly Cloudy
10:15 PM 57.2 °F 55.4 °F 94% 30.19 in 10.0 mi North 5.8 mph - N/A   Overcast
10:35 PM 57.2 °F 53.6 °F 88% 30.19 in 10.0 mi North 5.8 mph - N/A   Overcast
10:55 PM 57.2 °F 53.6 °F 88% 30.19 in 10.0 mi North 5.8 mph - N/A   Overcast
11:15 PM 57.2 °F 55.4 °F 94% 30.19 in 10.0 mi North 5.8 mph - N/A   Overcast
11:35 PM 57.2 °F 55.4 °F 94% 30.19 in 10.0 mi North 4.6 mph - N/A   Overcast
11:55 PM 57.2 °F 55.4 °F 94% 30.19 in 10.0 mi North 4.6 mph - N/A   Overcast